| time (UTC) | temp C | wind direction | speed KPH | gust KPH | rain 1hr cm | rain 24hr cm | rain mn cm | humidity % | barometer mb |
| 20260505211508 | 32 | 248 | 4.8 | 16.1 | 0.00 | 0.00 | 0.00 | 53 | 1004.5 |
| 20260505210008 | 31 | 201 | 8.0 | 19.3 | 0.00 | 0.00 | 0.00 | 54 | 1004.7 |
| 20260505204507 | 31 | 255 | 4.8 | 17.7 | 0.00 | 0.00 | 0.00 | 55 | 1004.8 |
| 20260505203009 | 31 | 300 | 4.8 | 17.7 | 0.00 | 0.00 | 0.00 | 55 | 1005.1 |
| 20260505201510 | 31 | 171 | 3.2 | 19.3 | 0.00 | 0.00 | 0.00 | 55 | 1005.2 |
| 20260505200025 | 31 | 210 | 4.8 | 22.5 | 0.00 | 0.00 | 0.00 | 57 | 1005.2 |
| 20260505194512 | 30 | 196 | 8.0 | 20.9 | 0.00 | 0.00 | 0.00 | 56 | 1005.2 |
| 20260505191512 | 30 | 240 | 6.4 | 19.3 | 0.00 | 0.00 | 0.00 | 58 | 1005.1 |
| 20260505190011 | 30 | 202 | 4.8 | 14.5 | 0.00 | 0.00 | 0.00 | 60 | 1005.3 |
| 20260505184517 | 29 | 209 | 8.0 | 24.1 | 0.00 | 0.00 | 0.00 | 59 | 1005.4 |
| 20260505183012 | 29 | 197 | 8.0 | 22.5 | 0.00 | 0.00 | 0.00 | 62 | 1005.2 |
| 20260505180016 | 28 | 188 | 6.4 | 22.5 | 0.00 | 0.00 | 0.00 | 66 | 1005.3 |
| 20260505174516 | 28 | 194 | 8.0 | 19.3 | 0.00 | 0.00 | 0.00 | 66 | 1005.4 |
| 20260505173034 | 27 | 190 | 6.4 | 24.1 | 0.00 | 0.00 | 0.00 | 69 | 1005.5 |
| 20260505164529 | 26 | 236 | 9.7 | 22.5 | 0.00 | 0.00 | 0.00 | 73 | 1005.5 |
| 20260505163017 | 25 | 128 | 8.0 | 25.7 | 0.00 | 0.00 | 0.00 | 74 | 1005.5 |
| 20260505161516 | 25 | 218 | 8.0 | 29.0 | 0.00 | 0.00 | 0.00 | 74 | 1005.4 |
| 20260505151505 | 23 | 188 | 9.7 | 32.2 | 0.00 | 0.00 | 0.00 | 78 | 1005.1 |
| 20260505124507 | 22 | 209 | 9.7 | 20.9 | 0.00 | 0.00 | 0.00 | 83 | 1004.8 |
| 20260505123014 | 21 | 182 | 8.0 | 29.0 | 0.00 | 0.00 | 0.00 | 83 | 1004.4 |
| 20260505121514 | 21 | 161 | 8.0 | 25.7 | 0.00 | 0.00 | 0.00 | 83 | 1004.4 |
| 20260505114510 | 22 | 171 | 8.0 | 29.0 | 0.00 | 0.00 | 0.00 | 82 | 1004.3 |
| 20260505113013 | 21 | 227 | 8.0 | 20.9 | 0.00 | 0.00 | 0.00 | 83 | 1004.3 |
| 20260505111516 | 21 | 165 | 11.3 | 29.0 | 0.00 | 0.00 | 0.00 | 83 | 1003.9 |
| 20260505101516 | 21 | 202 | 12.9 | 29.0 | 0.00 | 0.00 | 0.00 | 83 | 1004.1 |
| 20260505100016 | 21 | 199 | 8.0 | 30.6 | 0.00 | 0.00 | 0.00 | 83 | 1004.2 |
| 20260505094521 | 21 | 131 | 9.7 | 27.4 | 0.00 | 0.00 | 0.00 | 83 | 1004.2 |
| 20260505093009 | 21 | 209 | 8.0 | 27.4 | 0.00 | 0.00 | 0.00 | 83 | 1004.3 |
| 20260505091509 | 21 | 204 | 8.0 | 22.5 | 0.00 | 0.00 | 0.00 | 83 | 1004.6 |
| 20260505090014 | 21 | 242 | 8.0 | 25.7 | 0.00 | 0.00 | 0.00 | 83 | 1004.6 |
| 20260505084522 | 21 | 211 | 4.8 | 20.9 | 0.00 | 0.00 | 0.00 | 82 | 1004.6 |
| 20260505083031 | 21 | 197 | 6.4 | 20.9 | 0.00 | 0.00 | 0.00 | 82 | 1004.6 |
| 20260505081507 | 21 | 169 | 6.4 | 25.7 | 0.00 | 0.00 | 0.00 | 81 | 1004.7 |
| 20260505080014 | 22 | 171 | 8.0 | 29.0 | 0.00 | 0.00 | 0.00 | 80 | 1004.8 |
| 20260505074520 | 22 | 198 | 8.0 | 20.9 | 0.00 | 0.00 | 0.00 | 80 | 1004.9 |
| 20260505073022 | 22 | 162 | 8.0 | 22.5 | 0.00 | 0.00 | 0.00 | 79 | 1005.3 |
| 20260505071525 | 22 | 173 | 8.0 | 24.1 | 0.00 | 0.00 | 0.00 | 78 | 1005.4 |
| 20260505070011 | 22 | 179 | 6.4 | 25.7 | 0.00 | 0.00 | 0.00 | 78 | 1005.7 |
| 20260505064516 | 22 | 202 | 8.0 | 20.9 | 0.00 | 0.00 | 0.00 | 77 | 1005.9 |
| 20260505063031 | 22 | 200 | 4.8 | 22.5 | 0.00 | 0.00 | 0.00 | 77 | 1005.9 |
| 20260505061530 | 22 | 198 | 8.0 | 22.5 | 0.00 | 0.00 | 0.00 | 76 | 1006.1 |
| 20260505060020 | 22 | 138 | 4.8 | 24.1 | 0.00 | 0.00 | 0.00 | 76 | 1005.9 |
| 20260505054518 | 22 | 173 | 4.8 | 20.9 | 0.00 | 0.00 | 0.00 | 75 | 1006.1 |
| 20260505053018 | 22 | 158 | 9.7 | 22.5 | 0.00 | 0.00 | 0.00 | 74 | 1006.4 |
| 20260505051526 | 22 | 193 | 6.4 | 22.5 | 0.00 | 0.00 | 0.00 | 74 | 1006.7 |
| 20260505041518 | 23 | 188 | 11.3 | 35.4 | 0.00 | 0.00 | 0.00 | 71 | 1006.7 |
| 20260505040025 | 23 | 215 | 6.4 | 27.4 | 0.00 | 0.00 | 0.00 | 71 | 1006.7 |
| 20260505034526 | 23 | 219 | 6.4 | 35.4 | 0.00 | 0.00 | 0.00 | 70 | 1006.6 |
| 20260505033026 | 23 | 189 | 11.3 | 29.0 | 0.00 | 0.00 | 0.00 | 70 | 1006.8 |
| 20260505031518 | 23 | 198 | 8.0 | 25.7 | 0.00 | 0.00 | 0.00 | 70 | 1006.7 |
| 20260505030020 | 23 | 211 | 6.4 | 29.0 | 0.00 | 0.00 | 0.00 | 70 | 1006.8 |
| 20260505024548 | 23 | 156 | 8.0 | 27.4 | 0.00 | 0.00 | 0.00 | 69 | 1006.7 |
| 20260505021529 | 23 | 113 | 6.4 | 22.5 | 0.00 | 0.00 | 0.00 | 68 | 1006.7 |
| 20260505020018 | 24 | 208 | 8.0 | 22.5 | 0.00 | 0.00 | 0.00 | 67 | 1006.4 |
| 20260505014526 | 24 | 166 | 4.8 | 22.5 | 0.00 | 0.00 | 0.00 | 66 | 1006.5 |
| 20260505013025 | 24 | 191 | 8.0 | 30.6 | 0.00 | 0.00 | 0.00 | 65 | 1006.6 |
| 20260505011535 | 25 | 188 | 8.0 | 29.0 | 0.00 | 0.00 | 0.00 | 65 | 1006.5 |
| 20260505010018 | 25 | 143 | 9.7 | 20.9 | 0.00 | 0.00 | 0.00 | 64 | 1006.3 |
| 20260505004534 | 25 | 200 | 6.4 | 32.2 | 0.00 | 0.00 | 0.00 | 63 | 1006.4 |
| 20260505003007 | 25 | 165 | 12.9 | 25.7 | 0.00 | 0.00 | 0.00 | 62 | 1006.5 |
| 20260505001512 | 26 | 108 | 12.9 | 27.4 | 0.00 | 0.00 | 0.00 | 60 | 1006.7 |
| 20260505000015 | 26 | 165 | 12.9 | 30.6 | 0.00 | 0.00 | 0.00 | 60 | 1006.7 |
| 20260504234519 | 26 | 198 | 8.0 | 29.0 | 0.00 | 0.00 | 0.00 | 59 | 1006.9 |
| 20260504233004 | 26 | 215 | 8.0 | 30.6 | 0.00 | 0.00 | 0.00 | 59 | 1006.8 |
| 20260504231506 | 27 | 207 | 8.0 | 27.4 | 0.00 | 0.00 | 0.00 | 58 | 1007.0 |
| 20260504230012 | 27 | 217 | 6.4 | 25.7 | 0.00 | 0.00 | 0.00 | 55 | 1006.8 |
| 20260504224517 | 27 | 191 | 8.0 | 37.0 | 0.00 | 0.00 | 0.00 | 55 | 1007.3 |
| 20260504223023 | 28 | 118 | 9.7 | 27.4 | 0.00 | 0.00 | 0.00 | 54 | 1007.1 |
| 20260504221505 | 28 | 191 | 12.9 | 30.6 | 0.00 | 0.00 | 0.00 | 53 | 1007.1 |
| 20260504220015 | 28 | 174 | 11.3 | 38.6 | 0.00 | 0.00 | 0.00 | 53 | 1007.3 |
| 20260504214517 | 28 | 205 | 12.9 | 37.0 | 0.00 | 0.00 | 0.00 | 54 | 1007.5 |
| 20260504213022 | 28 | 198 | 9.7 | 27.4 | 0.00 | 0.00 | 0.00 | 53 | 1007.8 |